SEASAT 1

Last updated on Thu Oct 30 2025 00:02:14 GMT+0000 (Coordinated Universal Time)

1 10967U 78064A 25302.47706861 .00000519 00000+0 18415-3 0 9995 2 10967 108.0047 210.1933 0002626 262.5515 97.5332 14.45986235487540
UTC large
Height (km)
Speed (km/s)
/
Latitude / Longitude
Inclination (degrees)
Orbital Period (minutes)
Azimuth
Elevation
Range (km)
Doppler Factor

Next 0 passes for location: London (51.5072 / 0.1276)

Sorry there are no passes over London.